Zurück zum Katalog

STARLINK-37505

AktivKommunikationVLEO
NORAD 100054·PAYLOAD·🇺🇸 United States

Gestartet Jul 14, 2026 von Cape Canaveral Space Force Station

Loading…

Nächste Überflüge (nächste 24 Stunden)

TLE

AktuellSource: Space-Track

Epoche: Sep 14, 2026, 15:23 UTC

1 A0054U 26161AC  26257.64124931  .00018720  00000-0  56369-3 0  9997
2 A0054  53.1612  24.9052 0001159  90.8426 269.2709 15.34405701  9718

Verfolge STARLINK-37505 in Echtzeit mit AllMySat

Download on the App Store